Time,TemperatureF,DewpointF,PressureIn,WindDirection,WindDirectionDegrees,WindSpeedMPH,WindSpeedGustMPH,Humidity,HourlyPrecipIn,Conditions,Clouds,dailyrainin,SoftwareType,DateUTC
2013-04-07 00:00:00,51.4,20.2,30.07,SSE,166,5.0,10.0,29,0.00,,---,0.00,VWS V13.01,2013-04-07 04:00:00,
2013-04-07 00:05:00,51.3,20.1,30.07,SSW,212,4.0,8.0,29,0.00,,---,0.00,VWS V13.01,2013-04-07 04:05:00,
2013-04-07 00:10:00,51.3,20.9,30.06,SSE,153,3.0,9.0,30,0.00,,---,0.00,VWS V13.01,2013-04-07 04:10:00,
2013-04-07 00:15:00,51.2,20.9,30.06,East,89,7.0,14.0,30,0.00,,---,0.00,VWS V13.01,2013-04-07 04:15:00,
2013-04-07 00:20:00,51.2,20.9,30.06,ESE,109,4.0,14.0,30,0.00,,---,0.00,VWS V13.01,2013-04-07 04:20:00,
2013-04-07 00:25:00,51.1,20.8,30.06,SSE,163,4.0,15.0,30,0.00,,---,0.00,VWS V13.01,2013-04-07 04:25:00,
2013-04-07 00:30:00,51.1,21.5,30.06,SE,125,6.0,12.0,31,0.00,,---,0.00,VWS V13.01,2013-04-07 04:30:00,
2013-04-07 00:35:00,51.0,21.5,30.06,SSE,150,4.0,12.0,31,0.00,,---,0.00,VWS V13.01,2013-04-07 04:35:00,
2013-04-07 00:40:00,51.0,21.5,30.06,East,88,2.0,12.0,31,0.00,,---,0.00,VWS V13.01,2013-04-07 04:40:00,
2013-04-07 00:45:00,50.9,21.4,30.06,SSW,200,7.0,12.0,31,0.00,,---,0.00,VWS V13.01,2013-04-07 04:45:00,
2013-04-07 00:50:00,51.0,21.5,30.06,ESE,117,2.0,12.0,31,0.00,,---,0.00,VWS V13.01,2013-04-07 04:50:00,
2013-04-07 00:55:00,51.0,22.2,30.06,WSW,257,5.0,12.0,32,0.00,,---,0.00,VWS V13.01,2013-04-07 04:55:00,
2013-04-07 01:00:00,51.0,21.5,30.06,South,189,1.0,3.0,31,0.00,,---,0.00,VWS V13.01,2013-04-07 05:00:00,
2013-04-07 01:06:00,51.0,22.2,30.05,SE,144,2.0,8.0,32,0.00,,---,0.00,VWS V13.01,2013-04-07 05:06:00,
2013-04-07 01:11:00,51.1,22.3,30.05,SE,143,2.0,8.0,32,0.00,,---,0.00,VWS V13.01,2013-04-07 05:11:00,
2013-04-07 01:16:00,51.2,22.4,30.05,South,175,3.0,10.0,32,0.00,,---,0.00,VWS V13.01,2013-04-07 05:16:00,
2013-04-07 01:21:00,51.4,22.5,30.05,South,175,2.0,10.0,32,0.00,,---,0.00,VWS V13.01,2013-04-07 05:21:00,
2013-04-07 01:26:00,51.4,22.5,30.05,SE,128,2.0,10.0,32,0.00,,---,0.00,VWS V13.01,2013-04-07 05:26:00,
2013-04-07 01:31:00,51.4,22.5,30.04,SE,128,3.0,8.0,32,0.00,,---,0.00,VWS V13.01,2013-04-07 05:31:00,
2013-04-07 01:36:00,51.4,22.5,30.04,SSW,201,7.0,12.0,32,0.00,,---,0.00,VWS V13.01,2013-04-07 05:36:00,
2013-04-07 01:41:00,51.4,22.5,30.04,SE,132,2.0,12.0,32,0.00,,---,0.00,VWS V13.01,2013-04-07 05:41:00,
2013-04-07 01:46:00,51.2,23.1,30.04,SSE,161,3.0,12.0,33,0.00,,---,0.00,VWS V13.01,2013-04-07 05:46:00,
2013-04-07 01:51:00,51.1,23.0,30.04,SE,132,7.0,12.0,33,0.00,,---,0.00,VWS V13.01,2013-04-07 05:51:00,
2013-04-07 01:56:00,51.0,22.9,30.04,SE,136,4.0,15.0,33,0.00,,---,0.00,VWS V13.01,2013-04-07 05:56:00,
2013-04-07 02:01:00,51.0,22.9,30.04,SSE,165,5.0,7.0,33,0.00,,---,0.00,VWS V13.01,2013-04-07 06:01:00,
2013-04-07 02:06:00,50.9,22.8,30.04,SE,130,0.0,8.0,33,0.00,,---,0.00,VWS V13.01,2013-04-07 06:06:00,
2013-04-07 02:11:00,51.0,23.6,30.03,SSE,154,0.0,9.0,34,0.00,,---,0.00,VWS V13.01,2013-04-07 06:11:00,
2013-04-07 02:16:00,51.1,23.0,30.03,SSE,153,2.0,9.0,33,0.00,,---,0.00,VWS V13.01,2013-04-07 06:16:00,
2013-04-07 02:21:00,51.1,23.7,30.03,South,175,0.0,9.0,34,0.00,,---,0.00,VWS V13.01,2013-04-07 06:21:00,
2013-04-07 02:27:00,51.1,23.7,30.03,SE,142,1.0,9.0,34,0.00,,---,0.00,VWS V13.01,2013-04-07 06:27:00,
2013-04-07 02:32:00,51.2,23.8,30.03,SSE,149,3.0,5.0,34,0.00,,---,0.00,VWS V13.01,2013-04-07 06:32:00,
2013-04-07 02:37:00,51.3,23.9,30.03,SSW,194,3.0,8.0,34,0.00,,---,0.00,VWS V13.01,2013-04-07 06:37:00,
2013-04-07 02:42:00,51.5,24.8,30.03,SSE,150,5.0,8.0,35,0.00,,---,0.00,VWS V13.01,2013-04-07 06:42:00,
2013-04-07 02:47:00,51.6,24.9,30.03,South,182,3.0,8.0,35,0.00,,---,0.00,VWS V13.01,2013-04-07 06:47:00,
2013-04-07 02:52:00,51.6,24.9,30.02,SE,146,1.0,8.0,35,0.00,,---,0.00,VWS V13.01,2013-04-07 06:52:00,
2013-04-07 02:57:00,51.8,25.0,30.02,SSE,155,2.0,8.0,35,0.00,,---,0.00,VWS V13.01,2013-04-07 06:57:00,
2013-04-07 03:02:00,51.8,25.0,30.02,SE,138,2.0,6.0,35,0.00,,---,0.00,VWS V13.01,2013-04-07 07:02:00,
2013-04-07 03:07:00,51.9,25.1,30.02,ESE,109,4.0,9.0,35,0.00,,---,0.00,VWS V13.01,2013-04-07 07:07:00,
2013-04-07 03:12:00,52.1,25.3,30.02,SSE,149,1.0,12.0,35,0.00,,---,0.00,VWS V13.01,2013-04-07 07:12:00,
2013-04-07 03:17:00,52.0,25.2,30.02,SSE,150,2.0,12.0,35,0.00,,---,0.00,VWS V13.01,2013-04-07 07:17:00,
2013-04-07 03:22:00,52.1,25.3,30.01,SE,146,3.0,12.0,35,0.00,,---,0.00,VWS V13.01,2013-04-07 07:22:00,
2013-04-07 03:27:00,52.2,26.1,30.01,South,169,2.0,12.0,36,0.00,,---,0.00,VWS V13.01,2013-04-07 07:27:00,
2013-04-07 03:32:00,52.3,26.2,30.01,SE,129,2.0,5.0,36,0.00,,---,0.00,VWS V13.01,2013-04-07 07:32:00,
2013-04-07 03:37:00,52.5,26.3,30.01,SSE,159,1.0,8.0,36,0.00,,---,0.00,VWS V13.01,2013-04-07 07:37:00,
2013-04-07 03:42:00,52.7,26.5,30.01,SSE,163,4.0,8.0,36,0.00,,---,0.00,VWS V13.01,2013-04-07 07:42:00,
2013-04-07 03:47:00,53.1,27.5,30.01,South,176,6.0,12.0,37,0.00,,---,0.00,VWS V13.01,2013-04-07 07:47:00,
2013-04-07 03:52:00,53.6,27.3,30.01,SSW,211,2.0,12.0,36,0.00,,---,0.00,VWS V13.01,2013-04-07 07:52:00,
2013-04-07 03:57:00,53.9,27.6,30.00,South,175,4.0,12.0,36,0.00,,---,0.00,VWS V13.01,2013-04-07 07:57:00,
2013-04-07 04:02:00,54.1,27.8,30.00,SSW,203,10.0,13.0,36,0.00,,---,0.00,VWS V13.01,2013-04-07 08:02:00,
2013-04-07 04:07:00,54.4,28.0,30.00,South,180,1.0,13.0,36,0.00,,---,0.00,VWS V13.01,2013-04-07 08:07:00,
2013-04-07 04:12:00,54.5,27.4,30.00,SSE,167,1.0,13.0,35,0.00,,---,0.00,VWS V13.01,2013-04-07 08:12:00,
2013-04-07 04:17:00,54.6,28.2,30.00,SSE,165,2.0,13.0,36,0.00,,---,0.00,VWS V13.01,2013-04-07 08:17:00,
2013-04-07 04:22:00,54.8,28.4,30.00,SE,146,3.0,14.0,36,0.00,,---,0.00,VWS V13.01,2013-04-07 08:22:00,
2013-04-07 04:27:00,55.0,28.6,29.99,SSE,156,10.0,14.0,36,0.00,,---,0.00,VWS V13.01,2013-04-07 08:27:00,
2013-04-07 04:32:00,55.5,29.0,29.99,SSE,167,10.0,13.0,36,0.00,,---,0.00,VWS V13.01,2013-04-07 08:32:00,
2013-04-07 04:37:00,55.7,29.2,29.99,SSW,194,6.0,17.0,36,0.00,,---,0.00,VWS V13.01,2013-04-07 08:37:00,
2013-04-07 04:42:00,55.9,28.7,29.99,South,184,7.0,21.0,35,0.00,,---,0.00,VWS V13.01,2013-04-07 08:42:00,
2013-04-07 04:47:00,56.2,29.6,29.99,SSW,198,7.0,21.0,36,0.00,,---,0.00,VWS V13.01,2013-04-07 08:47:00,
2013-04-07 04:52:00,56.3,29.0,29.99,SSW,213,10.0,21.0,35,0.00,,---,0.00,VWS V13.01,2013-04-07 08:52:00,
2013-04-07 04:57:00,56.6,30.0,29.99,SSW,200,7.0,21.0,36,0.00,,---,0.00,VWS V13.01,2013-04-07 08:57:00,
2013-04-07 05:02:00,56.8,30.1,29.99,SSW,212,7.0,15.0,36,0.00,,---,0.00,VWS V13.01,2013-04-07 09:02:00,
2013-04-07 05:07:00,56.9,29.5,29.98,South,178,19.0,21.0,35,0.00,,---,0.00,VWS V13.01,2013-04-07 09:07:00,
2013-04-07 05:12:00,57.1,29.7,29.99,SSW,211,6.0,21.0,35,0.00,,---,0.00,VWS V13.01,2013-04-07 09:12:00,
2013-04-07 05:17:00,57.1,30.4,29.98,SSW,196,12.0,21.0,36,0.00,,---,0.00,VWS V13.01,2013-04-07 09:17:00,
2013-04-07 05:22:00,57.1,30.4,29.98,South,188,9.0,21.0,36,0.00,,---,0.00,VWS V13.01,2013-04-07 09:22:00,
2013-04-07 05:27:00,57.0,30.3,29.98,SSW,202,9.0,21.0,36,0.00,,---,0.00,VWS V13.01,2013-04-07 09:27:00,
2013-04-07 05:32:00,57.0,30.3,29.98,SW,215,10.0,12.0,36,0.00,,---,0.00,VWS V13.01,2013-04-07 09:32:00,
2013-04-07 05:37:00,57.1,30.4,29.98,South,171,7.0,13.0,36,0.00,,---,0.00,VWS V13.01,2013-04-07 09:37:00,
2013-04-07 05:42:00,57.2,30.5,29.98,SSW,202,7.0,18.0,36,0.00,,---,0.00,VWS V13.01,2013-04-07 09:42:00,
2013-04-07 05:47:00,57.5,30.8,29.98,SSW,196,7.0,18.0,36,0.00,,---,0.00,VWS V13.01,2013-04-07 09:47:00,
2013-04-07 05:52:00,57.5,30.8,29.98,South,175,9.0,18.0,36,0.00,,---,0.00,VWS V13.01,2013-04-07 09:52:00,
2013-04-07 05:57:00,57.5,30.8,29.98,SSW,201,10.0,18.0,36,0.00,,---,0.00,VWS V13.01,2013-04-07 09:57:00,
2013-04-07 06:02:00,57.7,31.0,29.98,SW,223,10.0,16.0,36,0.00,,---,0.00,VWS V13.01,2013-04-07 10:02:00,
2013-04-07 06:07:00,57.8,31.0,29.98,SW,225,14.0,17.0,36,0.00,,---,0.00,VWS V13.01,2013-04-07 10:07:00,
2013-04-07 06:12:00,57.8,31.0,29.98,South,190,8.0,17.0,36,0.00,,---,0.00,VWS V13.01,2013-04-07 10:12:00,
2013-04-07 06:17:00,57.8,31.0,29.98,SW,215,9.0,18.0,36,0.00,,---,0.00,VWS V13.01,2013-04-07 10:17:00,
2013-04-07 06:22:00,57.8,31.0,29.98,SW,217,6.0,18.0,36,0.00,,---,0.00,VWS V13.01,2013-04-07 10:22:00,
2013-04-07 06:27:00,57.7,31.0,29.97,SSW,196,9.0,20.0,36,0.00,,---,0.00,VWS V13.01,2013-04-07 10:27:00,
2013-04-07 06:32:00,57.7,31.0,29.98,SSW,194,7.0,13.0,36,0.00,,---,0.00,VWS V13.01,2013-04-07 10:32:00,
2013-04-07 06:37:00,57.6,30.9,29.97,SSW,204,8.0,15.0,36,0.00,,---,0.00,VWS V13.01,2013-04-07 10:37:00,
2013-04-07 06:42:00,57.6,31.5,29.97,SSW,196,8.0,16.0,37,0.00,,---,0.00,VWS V13.01,2013-04-07 10:42:00,
2013-04-07 06:47:00,57.6,31.5,29.98,SW,221,11.0,16.0,37,0.00,,---,0.00,VWS V13.01,2013-04-07 10:47:00,
2013-04-07 06:52:00,57.7,31.6,29.97,SW,221,4.0,18.0,37,0.00,,---,0.00,VWS V13.01,2013-04-07 10:52:00,
2013-04-07 06:57:00,57.6,31.5,29.97,SSW,213,7.0,18.0,37,0.00,,---,0.00,VWS V13.01,2013-04-07 10:57:00,
2013-04-07 07:02:00,57.6,31.5,29.98,South,188,10.0,12.0,37,0.00,,---,0.00,VWS V13.01,2013-04-07 11:02:00,
2013-04-07 07:07:00,57.5,32.1,29.97,SSW,193,9.0,13.0,38,0.00,,---,0.00,VWS V13.01,2013-04-07 11:07:00,
2013-04-07 07:13:00,57.5,31.5,29.97,SSW,195,9.0,13.0,37,0.00,,---,0.00,VWS V13.01,2013-04-07 11:13:00,
2013-04-07 07:18:00,57.5,32.1,29.97,South,188,5.0,13.0,38,0.00,,---,0.00,VWS V13.01,2013-04-07 11:18:00,
2013-04-07 07:23:00,57.5,32.1,29.97,SSW,210,8.0,13.0,38,0.00,,---,0.00,VWS V13.01,2013-04-07 11:23:00,
2013-04-07 07:28:00,57.6,32.2,29.97,South,191,9.0,13.0,38,0.00,,---,0.00,VWS V13.01,2013-04-07 11:28:00,
2013-04-07 07:33:00,57.7,32.3,29.96,SW,224,6.0,11.0,38,0.00,,---,0.00,VWS V13.01,2013-04-07 11:33:00,
2013-04-07 07:38:00,57.8,32.4,29.96,SW,215,7.0,15.0,38,0.00,,---,0.00,VWS V13.01,2013-04-07 11:38:00,
2013-04-07 07:43:00,58.0,33.2,29.97,SSW,209,6.0,15.0,39,0.00,,---,0.00,VWS V13.01,2013-04-07 11:43:00,
2013-04-07 07:48:00,58.2,32.7,29.96,SSW,210,7.0,15.0,38,0.00,,---,0.00,VWS V13.01,2013-04-07 11:48:00,
2013-04-07 07:53:00,58.4,32.9,29.96,SSW,205,7.0,15.0,38,0.00,,---,0.00,VWS V13.01,2013-04-07 11:53:00,
2013-04-07 07:58:00,58.6,33.1,29.96,SSW,209,8.0,15.0,38,0.00,,---,0.00,VWS V13.01,2013-04-07 11:58:00,
2013-04-07 08:03:00,58.8,33.3,29.96,SW,214,7.0,13.0,38,0.00,,---,0.00,VWS V13.01,2013-04-07 12:03:00,
2013-04-07 08:08:00,58.9,33.4,29.96,SW,219,6.0,14.0,38,0.00,,---,0.00,VWS V13.01,2013-04-07 12:08:00,
2013-04-07 08:13:00,59.0,33.5,29.96,SSW,202,9.0,16.0,38,0.00,,---,0.00,VWS V13.01,2013-04-07 12:13:00,
2013-04-07 08:18:00,59.2,33.6,29.96,SSW,196,6.0,16.0,38,0.00,,---,0.00,VWS V13.01,2013-04-07 12:18:00,
2013-04-07 08:23:00,59.4,33.8,29.96,SSW,207,7.0,16.0,38,0.00,,---,0.00,VWS V13.01,2013-04-07 12:23:00,
2013-04-07 08:28:00,59.5,33.9,29.96,SSW,205,7.0,16.0,38,0.00,,---,0.00,VWS V13.01,2013-04-07 12:28:00,
2013-04-07 08:34:00,59.6,34.0,29.96,SSW,208,5.0,10.0,38,0.00,,---,0.00,VWS V13.01,2013-04-07 12:34:00,
2013-04-07 08:39:00,59.9,34.9,29.95,SSW,196,7.0,12.0,39,0.00,,---,0.00,VWS V13.01,2013-04-07 12:39:00,
2013-04-07 08:44:00,60.2,35.2,29.95,SSW,192,5.0,13.0,39,0.00,,---,0.00,VWS V13.01,2013-04-07 12:44:00,
2013-04-07 08:49:00,60.8,35.1,29.95,SW,225,18.0,18.0,38,0.00,,---,0.00,VWS V13.01,2013-04-07 12:49:00,
2013-04-07 08:54:00,61.3,35.5,29.95,SW,233,10.0,21.0,38,0.00,,---,0.00,VWS V13.01,2013-04-07 12:54:00,
2013-04-07 08:59:00,61.8,36.0,29.95,SSW,213,11.0,21.0,38,0.00,,---,0.00,VWS V13.01,2013-04-07 12:59:00,
2013-04-07 09:04:00,62.3,35.7,29.95,SW,215,11.0,20.0,37,0.00,,---,0.00,VWS V13.01,2013-04-07 13:04:00,
2013-04-07 09:09:00,62.5,35.9,29.94,SSW,205,19.0,26.0,37,0.00,,---,0.00,VWS V13.01,2013-04-07 13:09:00,
2013-04-07 09:14:00,62.7,36.1,29.95,SSW,206,17.0,26.0,37,0.00,,---,0.00,VWS V13.01,2013-04-07 13:14:00,
2013-04-07 09:20:00,62.7,36.1,29.95,SW,224,10.0,26.0,37,0.00,,---,0.00,VWS V13.01,2013-04-07 13:20:00,
2013-04-07 09:25:00,62.6,36.0,29.94,SW,222,9.0,26.0,37,0.00,,---,0.00,VWS V13.01,2013-04-07 13:25:00,
2013-04-07 09:30:00,62.8,36.2,29.94,SSW,204,11.0,26.0,37,0.00,,---,0.00,VWS V13.01,2013-04-07 13:30:00,
2013-04-07 09:35:00,62.9,35.6,29.94,South,189,8.0,28.0,36,0.00,,---,0.00,VWS V13.01,2013-04-07 13:35:00,
2013-04-07 09:40:00,63.0,37.0,29.94,South,191,12.0,28.0,38,0.00,,---,0.00,VWS V13.01,2013-04-07 13:40:00,
2013-04-07 09:45:00,63.2,37.2,29.93,South,183,11.0,28.0,38,0.00,,---,0.00,VWS V13.01,2013-04-07 13:45:00,
2013-04-07 09:50:00,63.3,36.6,29.93,WSW,239,26.0,28.0,37,0.00,,---,0.00,VWS V13.01,2013-04-07 13:50:00,
2013-04-07 09:55:00,63.4,36.7,29.93,SSW,198,16.0,28.0,37,0.00,,---,0.00,VWS V13.01,2013-04-07 13:55:00,
2013-04-07 10:00:00,63.6,36.9,29.93,SSW,212,6.0,18.0,37,0.00,,---,0.00,VWS V13.01,2013-04-07 14:00:00,
2013-04-07 10:05:00,63.9,37.1,29.93,WSW,238,14.0,25.0,37,0.00,,---,0.00,VWS V13.01,2013-04-07 14:05:00,
2013-04-07 10:10:00,64.1,36.6,29.93,SW,227,15.0,25.0,36,0.00,,---,0.00,VWS V13.01,2013-04-07 14:10:00,
2013-04-07 10:15:00,64.4,37.6,29.92,WSW,250,13.0,25.0,37,0.00,,---,0.00,VWS V13.01,2013-04-07 14:15:00,
2013-04-07 10:20:00,64.3,36.8,29.93,SSW,209,11.0,27.0,36,0.00,,---,0.00,VWS V13.01,2013-04-07 14:20:00,
2013-04-07 10:25:00,64.3,37.5,29.92,SSW,194,8.0,27.0,37,0.00,,---,0.00,VWS V13.01,2013-04-07 14:25:00,
2013-04-07 10:30:00,64.2,37.4,29.92,WSW,252,13.0,23.0,37,0.00,,---,0.00,VWS V13.01,2013-04-07 14:30:00,
2013-04-07 10:35:00,64.2,37.4,29.93,SW,233,15.0,23.0,37,0.00,,---,0.00,VWS V13.01,2013-04-07 14:35:00,
2013-04-07 10:40:00,64.3,38.2,29.93,WSW,242,5.0,25.0,38,0.00,,---,0.00,VWS V13.01,2013-04-07 14:40:00,
2013-04-07 10:45:00,64.5,38.3,29.93,WSW,240,13.0,25.0,38,0.00,,---,0.00,VWS V13.01,2013-04-07 14:45:00,
2013-04-07 10:50:00,64.5,37.7,29.93,SSW,196,11.0,25.0,37,0.00,,---,0.00,VWS V13.01,2013-04-07 14:50:00,
2013-04-07 10:55:00,64.4,37.6,29.93,SW,229,20.0,25.0,37,0.00,,---,0.00,VWS V13.01,2013-04-07 14:55:00,
2013-04-07 11:00:00,64.7,38.5,29.92,SW,225,15.0,20.0,38,0.00,,---,0.00,VWS V13.01,2013-04-07 15:00:00,
2013-04-07 11:05:00,64.6,37.8,29.93,SSW,201,10.0,23.0,37,0.00,,---,0.00,VWS V13.01,2013-04-07 15:05:00,
2013-04-07 11:10:00,64.8,37.9,29.93,SW,231,12.0,23.0,37,0.00,,---,0.00,VWS V13.01,2013-04-07 15:10:00,
2013-04-07 11:15:00,65.0,38.8,29.93,SSW,192,9.0,23.0,38,0.00,,---,0.00,VWS V13.01,2013-04-07 15:15:00,
2013-04-07 11:20:00,65.6,39.3,29.93,SSW,211,8.0,23.0,38,0.00,,---,0.00,VWS V13.01,2013-04-07 15:20:00,
2013-04-07 11:25:00,65.9,38.9,29.92,SSW,197,7.0,23.0,37,0.00,,---,0.00,VWS V13.01,2013-04-07 15:25:00,
2013-04-07 11:30:00,66.1,39.1,29.92,South,188,10.0,20.0,37,0.00,,---,0.00,VWS V13.01,2013-04-07 15:30:00,
2013-04-07 11:35:00,66.1,39.1,29.92,SSW,203,11.0,21.0,37,0.00,,---,0.00,VWS V13.01,2013-04-07 15:35:00,
2013-04-07 11:40:00,66.2,39.2,29.92,SW,227,13.0,21.0,37,0.00,,---,0.00,VWS V13.01,2013-04-07 15:40:00,
2013-04-07 11:46:00,66.0,39.0,29.92,SW,236,19.0,21.0,37,0.00,,---,0.00,VWS V13.01,2013-04-07 15:46:00,
2013-04-07 11:51:00,65.9,39.6,29.92,SW,227,13.0,21.0,38,0.00,,---,0.00,VWS V13.01,2013-04-07 15:51:00,
2013-04-07 11:56:00,65.9,39.6,29.92,SW,229,12.0,21.0,38,0.00,,---,0.00,VWS V13.01,2013-04-07 15:56:00,
2013-04-07 12:01:00,66.0,39.7,29.91,SW,226,10.0,18.0,38,0.00,,---,0.00,VWS V13.01,2013-04-07 16:01:00,
2013-04-07 12:06:00,66.3,39.3,29.91,SW,235,8.0,22.0,37,0.00,,---,0.00,VWS V13.01,2013-04-07 16:06:00,
2013-04-07 12:10:00,66.5,40.1,29.91,SW,227,11.0,22.0,38,0.00,,---,0.00,VWS V13.01,2013-04-07 16:10:00,
2013-04-07 12:16:00,67.0,41.2,29.91,SW,236,15.0,22.0,39,0.00,,---,0.00,VWS V13.01,2013-04-07 16:16:00,
2013-04-07 12:21:00,67.5,39.6,29.91,SW,216,7.0,26.0,36,0.00,,---,0.00,VWS V13.01,2013-04-07 16:21:00,
2013-04-07 12:26:00,67.8,41.3,29.91,West,278,13.0,26.0,38,0.00,,---,0.00,VWS V13.01,2013-04-07 16:26:00,
2013-04-07 12:31:00,68.3,41.7,29.91,WSW,240,16.0,16.0,38,0.00,,---,0.00,VWS V13.01,2013-04-07 16:31:00,
2013-04-07 12:36:00,68.6,41.3,29.91,SW,215,12.0,20.0,37,0.00,,---,0.00,VWS V13.01,2013-04-07 16:36:00,
2013-04-07 12:41:00,68.4,40.4,29.91,WSW,239,18.0,22.0,36,0.00,,---,0.00,VWS V13.01,2013-04-07 16:41:00,
2013-04-07 12:46:00,67.7,40.5,29.91,WSW,240,17.0,24.0,37,0.00,,---,0.00,VWS V13.01,2013-04-07 16:46:00,
2013-04-07 12:51:00,67.3,40.8,29.91,WSW,240,8.0,24.0,38,0.00,,---,0.00,VWS V13.01,2013-04-07 16:51:00,
2013-04-07 12:56:00,67.2,40.8,29.91,SW,231,14.0,24.0,38,0.00,,---,0.00,VWS V13.01,2013-04-07 16:56:00,
2013-04-07 13:01:00,67.2,41.4,29.91,SW,214,13.0,17.0,39,0.00,,---,0.00,VWS V13.01,2013-04-07 17:01:00,
2013-04-07 13:06:00,67.5,41.0,29.91,WSW,257,10.0,20.0,38,0.00,,---,0.00,VWS V13.01,2013-04-07 17:06:00,
2013-04-07 13:11:00,67.5,41.0,29.90,SW,216,9.0,20.0,38,0.00,,---,0.00,VWS V13.01,2013-04-07 17:11:00,
2013-04-07 13:16:00,67.5,41.7,29.90,SW,233,16.0,23.0,39,0.00,,---,0.00,VWS V13.01,2013-04-07 17:16:00,
2013-04-07 13:21:00,67.8,41.3,29.90,SW,224,13.0,24.0,38,0.00,,---,0.00,VWS V13.01,2013-04-07 17:21:00,
2013-04-07 13:27:00,68.5,42.6,29.89,SW,224,8.0,24.0,39,0.00,,---,0.00,VWS V13.01,2013-04-07 17:27:00,
2013-04-07 13:32:00,68.8,42.2,29.89,SW,228,19.0,21.0,38,0.00,,---,0.00,VWS V13.01,2013-04-07 17:32:00,
2013-04-07 13:37:00,69.2,42.5,29.89,WSW,242,18.0,21.0,38,0.00,,---,0.00,VWS V13.01,2013-04-07 17:37:00,
2013-04-07 13:42:00,69.4,42.0,29.89,SW,217,8.0,21.0,37,0.00,,---,0.00,VWS V13.01,2013-04-07 17:42:00,
2013-04-07 13:47:00,69.8,43.1,29.88,SW,236,22.0,22.0,38,0.00,,---,0.00,VWS V13.01,2013-04-07 17:47:00,
2013-04-07 13:52:00,70.0,42.6,29.88,South,175,10.0,22.0,37,0.00,,---,0.00,VWS V13.01,2013-04-07 17:52:00,
2013-04-07 13:57:00,70.3,42.8,29.88,SW,224,16.0,22.0,37,0.00,,---,0.00,VWS V13.01,2013-04-07 17:57:00,
2013-04-07 14:02:00,70.5,43.0,29.88,SW,214,15.0,20.0,37,0.00,,---,0.00,VWS V13.01,2013-04-07 18:02:00,
2013-04-07 14:07:00,69.9,42.5,29.89,WSW,244,13.0,20.0,37,0.00,,---,0.00,VWS V13.01,2013-04-07 18:07:00,
2013-04-07 14:12:00,69.0,42.4,29.89,West,261,6.0,23.0,38,0.00,,---,0.00,VWS V13.01,2013-04-07 18:12:00,
2013-04-07 14:17:00,68.5,42.6,29.88,SW,232,17.0,23.0,39,0.00,,---,0.00,VWS V13.01,2013-04-07 18:17:00,
2013-04-07 14:22:00,68.5,42.6,29.88,SW,233,17.0,23.0,39,0.00,,---,0.00,VWS V13.01,2013-04-07 18:22:00,
2013-04-07 14:27:00,68.9,43.0,29.88,SW,236,9.0,23.0,39,0.00,,---,0.00,VWS V13.01,2013-04-07 18:27:00,
2013-04-07 14:32:00,69.4,42.7,29.88,WSW,258,11.0,18.0,38,0.00,,---,0.00,VWS V13.01,2013-04-07 18:32:00,
2013-04-07 14:37:00,69.5,42.8,29.88,WSW,251,8.0,20.0,38,0.00,,---,0.00,VWS V13.01,2013-04-07 18:37:00,
2013-04-07 14:42:00,69.5,42.8,29.88,WSW,239,12.0,20.0,38,0.00,,---,0.00,VWS V13.01,2013-04-07 18:42:00,
2013-04-07 14:47:00,69.9,43.8,29.88,SW,234,11.0,20.0,39,0.00,,---,0.00,VWS V13.01,2013-04-07 18:47:00,
2013-04-07 14:52:00,69.8,43.1,29.88,SW,223,13.0,21.0,38,0.00,,---,0.00,VWS V13.01,2013-04-07 18:52:00,
2013-04-07 14:57:00,69.5,42.8,29.88,West,264,10.0,22.0,38,0.00,,---,0.00,VWS V13.01,2013-04-07 18:57:00,
2013-04-07 15:02:00,69.4,43.4,29.88,SW,236,11.0,18.0,39,0.00,,---,0.00,VWS V13.01,2013-04-07 19:02:00,
2013-04-07 15:07:00,69.7,44.3,29.87,SW,216,14.0,18.0,40,0.00,,---,0.00,VWS V13.01,2013-04-07 19:07:00,
2013-04-07 15:12:00,70.1,44.0,29.87,SSW,204,11.0,23.0,39,0.00,,---,0.00,VWS V13.01,2013-04-07 19:12:00,
2013-04-07 15:17:00,70.1,44.0,29.87,SSW,209,8.0,23.0,39,0.00,,---,0.00,VWS V13.01,2013-04-07 19:17:00,
2013-04-07 15:22:00,69.8,43.8,29.87,SSW,203,9.0,23.0,39,0.00,,---,0.00,VWS V13.01,2013-04-07 19:22:00,
2013-04-07 15:27:00,69.5,44.8,29.87,SW,215,9.0,24.0,41,0.00,,---,0.00,VWS V13.01,2013-04-07 19:27:00,
2013-04-07 15:32:00,69.5,44.8,29.87,SW,232,20.0,20.0,41,0.00,,---,0.00,VWS V13.01,2013-04-07 19:32:00,
2013-04-07 15:37:00,69.8,44.4,29.86,SW,230,13.0,20.0,40,0.00,,---,0.00,VWS V13.01,2013-04-07 19:37:00,
2013-04-07 15:42:00,70.1,44.0,29.87,SW,226,12.0,20.0,39,0.00,,---,0.00,VWS V13.01,2013-04-07 19:42:00,
2013-04-07 15:47:00,70.0,43.9,29.87,SSW,193,10.0,20.0,39,0.00,,---,0.00,VWS V13.01,2013-04-07 19:47:00,
2013-04-07 15:53:00,69.8,45.7,29.87,West,269,7.0,20.0,42,0.00,,---,0.00,VWS V13.01,2013-04-07 19:53:00,
2013-04-07 15:58:00,68.5,48.1,29.87,WSW,252,9.0,20.0,48,0.00,,---,0.00,VWS V13.01,2013-04-07 19:58:00,
2013-04-07 16:03:00,67.2,47.4,29.88,WSW,242,11.0,14.0,49,0.00,,---,0.00,VWS V13.01,2013-04-07 20:03:00,
2013-04-07 16:08:00,67.0,48.8,29.88,SW,227,6.0,14.0,52,0.00,,---,0.00,VWS V13.01,2013-04-07 20:08:00,
2013-04-07 16:13:00,67.7,47.9,29.88,SSW,209,8.0,14.0,49,0.00,,---,0.00,VWS V13.01,2013-04-07 20:13:00,
2013-04-07 16:18:00,69.1,48.6,29.88,West,261,7.0,14.0,48,0.00,,---,0.00,VWS V13.01,2013-04-07 20:18:00,
2013-04-07 16:23:00,70.1,49.0,29.88,WSW,242,8.0,14.0,47,0.00,,---,0.00,VWS V13.01,2013-04-07 20:23:00,
2013-04-07 16:28:00,70.4,48.1,29.88,WSW,248,9.0,14.0,45,0.00,,---,0.00,VWS V13.01,2013-04-07 20:28:00,
2013-04-07 16:33:00,70.9,48.5,29.88,WSW,256,9.0,12.0,45,0.00,,---,0.00,VWS V13.01,2013-04-07 20:33:00,
2013-04-07 16:38:00,71.6,47.9,29.87,WSW,240,4.0,12.0,43,0.00,,---,0.00,VWS V13.01,2013-04-07 20:38:00,
2013-04-07 16:43:00,71.9,47.0,29.88,SW,234,7.0,16.0,41,0.00,,---,0.00,VWS V13.01,2013-04-07 20:43:00,
2013-04-07 16:48:00,71.5,46.6,29.87,SW,233,6.0,16.0,41,0.00,,---,0.00,VWS V13.01,2013-04-07 20:48:00,
2013-04-07 16:53:00,70.8,46.0,29.88,WSW,242,10.0,17.0,41,0.00,,---,0.00,VWS V13.01,2013-04-07 20:53:00,
2013-04-07 16:58:00,70.3,46.2,29.88,SW,229,6.0,17.0,42,0.00,,---,0.00,VWS V13.01,2013-04-07 20:58:00,
2013-04-07 17:03:00,70.2,46.1,29.88,SSW,205,5.0,12.0,42,0.00,,---,0.00,VWS V13.01,2013-04-07 21:03:00,
2013-04-07 17:08:00,70.2,46.7,29.88,WSW,251,9.0,14.0,43,0.00,,---,0.00,VWS V13.01,2013-04-07 21:08:00,
2013-04-07 17:13:00,70.2,46.7,29.88,WSW,245,10.0,14.0,43,0.00,,---,0.00,VWS V13.01,2013-04-07 21:13:00,
2013-04-07 17:18:00,70.4,46.9,29.88,SSW,211,7.0,14.0,43,0.00,,---,0.00,VWS V13.01,2013-04-07 21:18:00,
2013-04-07 17:23:00,70.5,47.0,29.88,WSW,245,8.0,14.0,43,0.00,,---,0.00,VWS V13.01,2013-04-07 21:23:00,
2013-04-07 17:28:00,70.6,47.0,29.88,WSW,254,9.0,14.0,43,0.00,,---,0.00,VWS V13.01,2013-04-07 21:28:00,
2013-04-07 17:34:00,70.5,46.3,29.88,SSW,207,10.0,13.0,42,0.00,,---,0.00,VWS V13.01,2013-04-07 21:34:00,
2013-04-07 17:39:00,70.7,45.9,29.88,SW,227,11.0,23.0,41,0.00,,---,0.00,VWS V13.01,2013-04-07 21:39:00,
2013-04-07 17:44:00,70.4,45.6,29.88,SW,236,16.0,27.0,41,0.00,,---,0.00,VWS V13.01,2013-04-07 21:44:00,
2013-04-07 17:49:00,70.1,45.3,29.88,WSW,250,8.0,27.0,41,0.00,,---,0.00,VWS V13.01,2013-04-07 21:49:00,
2013-04-07 17:54:00,70.0,45.9,29.88,SW,227,9.0,27.0,42,0.00,,---,0.00,VWS V13.01,2013-04-07 21:54:00,
2013-04-07 17:59:00,69.8,45.7,29.89,SW,227,11.0,27.0,42,0.00,,---,0.00,VWS V13.01,2013-04-07 21:59:00,
2013-04-07 18:04:00,69.6,45.5,29.89,SW,225,16.0,20.0,42,0.00,,---,0.00,VWS V13.01,2013-04-07 22:04:00,
2013-04-07 18:09:00,69.4,45.3,29.89,SW,235,14.0,24.0,42,0.00,,---,0.00,VWS V13.01,2013-04-07 22:09:00,
2013-04-07 18:14:00,69.2,45.8,29.89,WSW,248,12.0,24.0,43,0.00,,---,0.00,VWS V13.01,2013-04-07 22:14:00,
2013-04-07 18:19:00,69.1,45.7,29.89,SW,221,6.0,24.0,43,0.00,,---,0.00,VWS V13.01,2013-04-07 22:19:00,
2013-04-07 18:24:00,69.1,46.3,29.89,SW,221,6.0,24.0,44,0.00,,---,0.00,VWS V13.01,2013-04-07 22:24:00,
2013-04-07 18:29:00,69.2,46.4,29.89,SW,230,6.0,24.0,44,0.00,,---,0.00,VWS V13.01,2013-04-07 22:29:00,
2013-04-07 18:34:00,69.1,46.3,29.89,SW,231,14.0,15.0,44,0.00,,---,0.00,VWS V13.01,2013-04-07 22:34:00,
2013-04-07 18:39:00,69.1,46.3,29.89,SW,217,10.0,17.0,44,0.00,,---,0.00,VWS V13.01,2013-04-07 22:39:00,
2013-04-07 18:45:00,68.7,46.5,29.89,WSW,246,13.0,17.0,45,0.00,,---,0.00,VWS V13.01,2013-04-07 22:45:00,
2013-04-07 18:50:00,68.4,46.2,29.89,SW,233,12.0,17.0,45,0.00,,---,0.00,VWS V13.01,2013-04-07 22:50:00,
2013-04-07 18:55:00,68.0,46.5,29.89,SW,231,11.0,17.0,46,0.00,,---,0.00,VWS V13.01,2013-04-07 22:55:00,
2013-04-07 19:00:00,67.7,46.2,29.90,WSW,246,10.0,17.0,46,0.00,,---,0.00,VWS V13.01,2013-04-07 23:00:00,
2013-04-07 19:05:00,67.5,46.6,29.90,SW,225,6.0,13.0,47,0.00,,---,0.00,VWS V13.01,2013-04-07 23:05:00,
2013-04-07 19:10:00,67.3,46.4,29.90,SW,227,8.0,14.0,47,0.00,,---,0.00,VWS V13.01,2013-04-07 23:10:00,
2013-04-07 19:15:00,67.2,46.3,29.90,SW,221,7.0,15.0,47,0.00,,---,0.00,VWS V13.01,2013-04-07 23:15:00,
2013-04-07 19:20:00,67.2,46.3,29.90,West,260,6.0,17.0,47,0.00,,---,0.00,VWS V13.01,2013-04-07 23:20:00,
2013-04-07 19:25:00,67.2,46.9,29.90,SSW,207,10.0,17.0,48,0.00,,---,0.00,VWS V13.01,2013-04-07 23:25:00,
2013-04-07 19:30:00,66.8,47.0,29.91,SW,221,15.0,15.0,49,0.00,,---,0.00,VWS V13.01,2013-04-07 23:30:00,
2013-04-07 19:35:00,66.2,47.6,29.90,SW,219,18.0,21.0,51,0.00,,---,0.00,VWS V13.01,2013-04-07 23:35:00,
2013-04-07 19:40:00,65.6,47.5,29.91,SW,226,9.0,21.0,52,0.00,,---,0.00,VWS V13.01,2013-04-07 23:40:00,
2013-04-07 19:45:00,65.2,47.2,29.91,SW,215,7.0,21.0,52,0.00,,---,0.00,VWS V13.01,2013-04-07 23:45:00,
2013-04-07 19:50:00,64.8,47.3,29.91,WSW,244,8.0,21.0,53,0.00,,---,0.00,VWS V13.01,2013-04-07 23:50:00,
2013-04-07 19:55:00,64.3,47.8,29.92,SSW,210,4.0,21.0,55,0.00,,---,0.00,VWS V13.01,2013-04-07 23:55:00,
2013-04-07 20:00:00,63.7,47.7,29.92,SW,223,7.0,8.0,56,0.00,,---,0.00,VWS V13.01,2013-04-08 00:00:00,
2013-04-07 20:05:00,63.0,47.5,29.92,SSW,211,10.0,11.0,57,0.00,,---,0.00,VWS V13.01,2013-04-08 00:05:00,
2013-04-07 20:10:00,62.6,47.6,29.91,SW,219,7.0,11.0,58,0.00,,---,0.00,VWS V13.01,2013-04-08 00:10:00,
2013-04-07 20:15:00,62.2,47.3,29.92,SSW,211,4.0,11.0,58,0.00,,---,0.00,VWS V13.01,2013-04-08 00:15:00,
2013-04-07 20:20:00,61.9,47.4,29.92,SW,223,5.0,11.0,59,0.00,,---,0.00,VWS V13.01,2013-04-08 00:20:00,
2013-04-07 20:25:00,61.6,47.2,29.92,SW,230,5.0,11.0,59,0.00,,---,0.00,VWS V13.01,2013-04-08 00:25:00,
2013-04-07 20:30:00,61.4,47.4,29.92,SW,232,4.0,7.0,60,0.00,,---,0.00,VWS V13.01,2013-04-08 00:30:00,
2013-04-07 20:35:00,61.2,47.2,29.93,SW,226,5.0,7.0,60,0.00,,---,0.00,VWS V13.01,2013-04-08 00:35:00,
2013-04-07 20:40:00,60.9,46.9,29.93,SW,234,7.0,11.0,60,0.00,,---,0.00,VWS V13.01,2013-04-08 00:40:00,
2013-04-07 20:45:00,60.8,46.8,29.93,SSW,205,6.0,13.0,60,0.00,,---,0.00,VWS V13.01,2013-04-08 00:45:00,
2013-04-07 20:50:00,60.7,47.2,29.93,SW,232,6.0,13.0,61,0.00,,---,0.00,VWS V13.01,2013-04-08 00:50:00,
2013-04-07 20:55:00,60.5,47.4,29.94,SW,225,7.0,13.0,62,0.00,,---,0.00,VWS V13.01,2013-04-08 00:55:00,
2013-04-07 21:00:00,60.2,47.6,29.94,SSW,205,7.0,10.0,63,0.00,,---,0.00,VWS V13.01,2013-04-08 01:00:00,
2013-04-07 21:05:00,59.9,47.7,29.94,SW,223,9.0,10.0,64,0.00,,---,0.00,VWS V13.01,2013-04-08 01:05:00,
2013-04-07 21:10:00,59.7,48.3,29.94,SSW,201,6.0,10.0,66,0.00,,---,0.00,VWS V13.01,2013-04-08 01:10:00,
2013-04-07 21:15:00,59.6,48.6,29.94,SW,217,5.0,10.0,67,0.00,,---,0.00,VWS V13.01,2013-04-08 01:15:00,
2013-04-07 21:20:00,59.5,48.5,29.94,SW,236,9.0,10.0,67,0.00,,---,0.00,VWS V13.01,2013-04-08 01:20:00,
2013-04-07 21:25:00,59.3,48.8,29.94,SW,225,6.0,10.0,68,0.00,,---,0.00,VWS V13.01,2013-04-08 01:25:00,
2013-04-07 21:31:00,59.2,48.7,29.94,SSW,213,3.0,8.0,68,0.00,,---,0.00,VWS V13.01,2013-04-08 01:31:00,
2013-04-07 21:36:00,59.0,48.9,29.95,SW,215,4.0,8.0,69,0.00,,---,0.00,VWS V13.01,2013-04-08 01:36:00,
2013-04-07 21:41:00,58.8,48.7,29.95,SW,224,8.0,8.0,69,0.00,,---,0.00,VWS V13.01,2013-04-08 01:41:00,
2013-04-07 21:46:00,58.7,49.0,29.95,SW,232,4.0,8.0,70,0.00,,---,0.00,VWS V13.01,2013-04-08 01:46:00,
2013-04-07 21:51:00,58.4,48.7,29.95,SW,230,6.0,8.0,70,0.00,,---,0.00,VWS V13.01,2013-04-08 01:51:00,
2013-04-07 21:56:00,58.3,49.0,29.95,WSW,245,4.0,8.0,71,0.00,,---,0.00,VWS V13.01,2013-04-08 01:56:00,
2013-04-07 22:01:00,58.1,48.8,29.95,SW,227,5.0,6.0,71,0.00,,---,0.00,VWS V13.01,2013-04-08 02:01:00,
2013-04-07 22:06:00,58.0,48.7,29.95,SSW,208,5.0,7.0,71,0.00,,---,0.00,VWS V13.01,2013-04-08 02:06:00,
2013-04-07 22:11:00,58.0,48.7,29.95,SW,215,5.0,9.0,71,0.00,,---,0.00,VWS V13.01,2013-04-08 02:11:00,
2013-04-07 22:17:00,58.0,48.7,29.95,WSW,245,5.0,9.0,71,0.00,,---,0.00,VWS V13.01,2013-04-08 02:17:00,
2013-04-07 22:22:00,58.2,48.8,29.95,SW,225,7.0,13.0,71,0.00,,---,0.00,VWS V13.01,2013-04-08 02:22:00,
2013-04-07 22:27:00,58.4,48.7,29.95,SW,227,8.0,13.0,70,0.00,,---,0.00,VWS V13.01,2013-04-08 02:27:00,
2013-04-07 22:32:00,58.4,48.7,29.96,WNW,284,4.0,8.0,70,0.00,,---,0.00,VWS V13.01,2013-04-08 02:32:00,
2013-04-07 22:37:00,58.2,48.8,29.97,NW,323,9.0,9.0,71,0.00,,---,0.00,VWS V13.01,2013-04-08 02:37:00,
2013-04-07 22:42:00,58.2,48.8,29.97,NW,323,0.0,9.0,71,0.00,,---,0.00,VWS V13.01,2013-04-08 02:42:00,
2013-04-07 22:47:00,58.2,48.8,29.97,WNW,292,2.0,9.0,71,0.00,,---,0.00,VWS V13.01,2013-04-08 02:47:00,
2013-04-07 22:52:00,58.2,48.5,29.98,WNW,288,0.0,9.0,70,0.00,,---,0.00,VWS V13.01,2013-04-08 02:52:00,
2013-04-07 22:57:00,58.3,48.6,29.97,SW,221,2.0,9.0,70,0.00,,---,0.00,VWS V13.01,2013-04-08 02:57:00,
2013-04-07 23:03:00,58.4,48.3,29.97,WSW,254,2.0,3.0,69,0.00,,---,0.00,VWS V13.01,2013-04-08 03:03:00,
2013-04-07 23:08:00,58.3,48.2,29.97,WSW,253,1.0,3.0,69,0.00,,---,0.00,VWS V13.01,2013-04-08 03:08:00,
2013-04-07 23:13:00,58.2,48.1,29.97,SW,228,2.0,3.0,69,0.00,,---,0.00,VWS V13.01,2013-04-08 03:13:00,
2013-04-07 23:18:00,58.0,48.3,29.97,SW,225,3.0,5.0,70,0.00,,---,0.00,VWS V13.01,2013-04-08 03:18:00,
2013-04-07 23:23:00,58.0,48.3,29.97,SW,221,2.0,5.0,70,0.00,,---,0.00,VWS V13.01,2013-04-08 03:23:00,
2013-04-07 23:28:00,58.0,48.3,29.97,SW,219,0.0,5.0,70,0.00,,---,0.00,VWS V13.01,2013-04-08 03:28:00,
2013-04-07 23:33:00,57.8,48.1,29.97,SW,219,0.0,2.0,70,0.00,,---,0.00,VWS V13.01,2013-04-08 03:33:00,
2013-04-07 23:38:00,57.7,48.0,29.97,SW,219,0.0,2.0,70,0.00,,---,0.00,VWS V13.01,2013-04-08 03:38:00,
2013-04-07 23:43:00,57.4,48.1,29.97,SW,219,0.0,2.0,71,0.00,,---,0.00,VWS V13.01,2013-04-08 03:43:00,
2013-04-07 23:48:00,57.0,47.7,29.98,SW,219,0.0,2.0,71,0.00,,---,0.00,VWS V13.01,2013-04-08 03:48:00,
2013-04-07 23:53:00,56.5,47.6,29.98,West,269,0.0,3.0,72,0.00,,---,0.00,VWS V13.01,2013-04-08 03:53:00,
2013-04-07 23:58:00,56.1,47.6,29.98,West,277,0.0,3.0,73,0.00,,---,0.00,VWS V13.01,2013-04-08 03:58:00,